Waarnemingen

Advertentie
Mijn weer
Solenzara, Frankrijk (7765): temperatuur & dauwpunt: 26.05.2020 04:00:00 - 01.06.2020 04:00:00 (CEST)Solenzara, Frankrijk (7765): temperatuur 5cm: 26.05.2020 04:00:00 - 01.06.2020 04:00:00 (CEST)Solenzara, Frankrijk (7765): temperatuur -20cm: 26.05.2020 04:00:00 - 01.06.2020 04:00:00 (CEST)Solenzara, Frankrijk (7765): windsnelheid & windstoten: 26.05.2020 04:00:00 - 01.06.2020 04:00:00 (CEST)Solenzara, Frankrijk (7765): windrichting: 26.05.2020 04:00:00 - 01.06.2020 04:00:00 (CEST)Solenzara, Frankrijk (7765): luchtdruk: 26.05.2020 04:00:00 - 01.06.2020 04:00:00 (CEST)Solenzara, Frankrijk (7765): zicht: 26.05.2020 04:00:00 - 01.06.2020 04:00:00 (CEST)Solenzara, Frankrijk (7765): Zonneschijnduur: 26.05.2020 04:00:00 - 01.06.2020 04:00:00 (CEST)Solenzara, Frankrijk (7765): neerslag: 26.05.2020 04:00:00 - 01.06.2020 04:00:00 (CEST)
Datum & Tijd tt [°C] td [°C] tt 5cm [°C] tt -20cm [°C] ff [km/u] ff [kn] fx [km/u] fx [kn] dd ppp [hPa] vv [km] sd [min] rr [mm]
01.06.2020 04:00:00 - - - - - - - - - - - - -
01.06.2020 03:00:00 14,8 11,2 14,1 20,5 10 6 18 10 W 1016,8 60 0 0,0
01.06.2020 02:00:00 15,2 11,6 13,2 20,5 10 5 17 9 W 1016,6 60 0 0,0
01.06.2020 01:00:00 15,3 11,7 13,5 20,6 9 5 18 10 W 1016,5 60 0 0,0
01.06.2020 00:00:00 15,9 11,9 14,7 20,6 11 6 20 11 W 1016,3 60 0 0,0
31.05.2020 23:00:00 16,6 12,3 15,9 20,6 10 5 20 11 W 1016,3 60 0 0,0
31.05.2020 22:00:00 17,0 12,9 17,0 20,6 10 6 19 10 W 1015,9 60 0 0,0
31.05.2020 21:00:00 18,0 13,5 17,8 20,5 9 5 17 9 W 1015,2 60 0 0,0
31.05.2020 20:00:00 21,0 11,9 18,7 20,5 0 0 13 7 N 1015,0 19 0 0,0
31.05.2020 19:00:00 21,8 13,2 20,9 20,4 4 2 15 8 OZO 1014,8 53 0 0,0
31.05.2020 18:00:00 22,2 13,3 21,5 20,3 10 5 21 12 N 1015,3 58 0 0,0
31.05.2020 17:00:00 20,9 13,1 22,2 20,2 6 4 20 11 NW 1015,6 53 0 0,0
31.05.2020 16:00:00 19,4 14,0 21,4 20,1 10 5 34 19 W 1016,1 31 0 0,0
31.05.2020 15:00:00 20,0 14,1 21,6 20,0 9 5 23 12 ZW 1016,3 50 0 0,0
31.05.2020 14:00:00 22,7 14,3 28,2 19,8 14 7 25 14 ZZO 1016,3 39 0 0,0
31.05.2020 13:00:00 23,0 14,8 27,7 19,8 14 7 21 11 OZO 1016,2 41 0 0,0
31.05.2020 12:00:00 22,6 14,7 26,0 19,7 14 7 22 12 O 1016,3 47 0 0,0
31.05.2020 11:00:00 22,2 14,8 26,3 19,7 15 8 22 12 ONO 1016,3 57 0 0,0
31.05.2020 10:00:00 21,7 14,3 25,3 19,7 11 6 18 10 O 1016,2 60 0 0,0
31.05.2020 09:00:00 21,2 13,9 20,6 19,8 7 4 12 6 NNO 1015,9 60 0 0,0
31.05.2020 08:00:00 18,7 10,8 15,7 19,8 6 3 16 9 W 1015,9 35 0 0,0
31.05.2020 07:00:00 15,5 8,2 14,0 19,9 10 6 18 10 W 1015,8 35 0 0,0
31.05.2020 06:00:00 14,3 7,8 13,8 19,9 11 6 19 10 W 1015,4 60 0 0,0
31.05.2020 05:00:00 14,3 8,0 13,8 20,0 11 6 19 11 W 1015,2 60 0 0,0
31.05.2020 04:00:00 14,5 8,0 11,7 20,0 12 6 20 11 W 1015,4 60 0 0,0
31.05.2020 03:00:00 14,5 8,0 11,0 20,1 7 4 18 10 WNW 1015,9 60 0 0,0
31.05.2020 02:00:00 15,1 7,9 11,7 20,1 10 5 18 10 W 1015,9 60 0 0,0
31.05.2020 01:00:00 15,1 8,3 12,4 20,1 9 5 16 9 W 1016,2 60 0 0,0
31.05.2020 00:00:00 15,6 8,8 13,2 20,1 9 5 18 10 W 1016,1 60 0 0,0
30.05.2020 23:00:00 15,8 9,5 14,0 20,1 9 5 16 9 W 1016,1 60 0 0,0
30.05.2020 22:00:00 16,7 9,6 14,3 20,1 8 4 16 9 W 1015,5 60 0 0,0
30.05.2020 21:00:00 17,5 10,1 15,1 20,1 8 5 14 8 W 1015,1 60 0 0,0
30.05.2020 20:00:00 19,8 11,0 17,8 20,0 3 1 10 5 OZO 1014,8 60 0 0,0
30.05.2020 19:00:00 21,0 10,2 20,2 19,9 7 4 12 7 O 1014,5 58 0 0,0
30.05.2020 18:00:00 21,4 9,6 22,1 19,8 11 6 21 11 ONO 1014,6 58 0 0,0
30.05.2020 17:00:00 21,3 10,1 23,3 19,8 14 7 24 13 O 1015,2 32 0 0,0
30.05.2020 16:00:00 21,6 10,1 23,4 19,7 17 9 31 17 ONO 1015,7 19 0 0,0
30.05.2020 15:00:00 20,9 10,7 23,0 19,6 24 13 35 19 ONO 1016,2 18 0 0,0
30.05.2020 14:00:00 20,5 11,7 22,5 19,6 25 13 42 23 NO 1016,3 18 0 0,0
30.05.2020 13:00:00 20,7 11,6 22,6 19,5 27 15 48 26 NO 1016,4 22 0 0,0
30.05.2020 12:00:00 20,1 10,8 22,6 19,6 34 19 50 27 NO 1016,3 27 0 0,0
30.05.2020 11:00:00 20,0 11,0 22,6 19,6 32 17 48 26 NO 1016,2 37 0 0,0
30.05.2020 10:00:00 19,8 11,8 18,1 19,6 21 11 32 17 NO 1016,3 52 0 0,0
30.05.2020 09:00:00 17,9 10,8 18,1 19,7 16 8 27 14 NNO 1016,8 49 0 0,0
30.05.2020 08:00:00 17,1 9,8 12,9 19,7 7 4 13 7 N 1016,3 55 0 0,0
30.05.2020 07:00:00 13,5 8,3 11,2 19,8 7 4 19 10 W 1016,4 60 0 0,0
30.05.2020 06:00:00 12,2 8,1 12,0 19,9 11 6 21 11 W 1016,4 60 0 0,0
30.05.2020 05:00:00 12,4 8,1 10,8 20,0 11 6 19 10 W 1016,7 60 0 0,0
30.05.2020 04:00:00 12,9 8,6 11,0 20,0 10 6 21 11 W 1017,1 60 0 0,0
30.05.2020 03:00:00 12,9 9,5 11,7 20,1 10 5 17 9 W 1017,5 60 0 0,0
30.05.2020 02:00:00 13,0 10,5 12,2 20,2 10 5 17 9 W 1018,0 60 0 0,0
30.05.2020 01:00:00 13,1 11,2 11,8 20,2 9 5 15 8 W 1018,4 59 0 0,0
30.05.2020 00:00:00 13,5 11,7 12,2 20,3 8 4 14 7 W 1018,4 51 0 0,0
29.05.2020 23:00:00 14,1 12,3 12,3 20,4 8 4 14 7 W 1018,2 55 0 0,0
29.05.2020 22:00:00 14,9 12,6 13,7 20,4 6 3 10 6 W 1018,2 60 0 0,0
29.05.2020 21:00:00 15,2 13,2 13,2 20,4 5 3 8 5 WNW 1018,1 55 0 0,0
29.05.2020 20:00:00 15,8 13,1 15,1 20,5 6 4 10 6 N 1018,4 56 0 0,0
29.05.2020 19:00:00 16,3 13,6 15,7 20,5 6 3 14 8 NNO 1018,5 60 0 0,0
29.05.2020 18:00:00 16,3 13,8 15,9 20,5 8 4 17 9 ONO 1018,5 59 0 0,2
29.05.2020 17:00:00 15,8 13,8 15,4 20,5 9 5 15 8 Z 1018,1 23 0 0,2
29.05.2020 16:00:00 16,0 13,1 15,7 20,6 9 5 21 11 N 1019,1 48 0 0,2
29.05.2020 15:00:00 16,7 13,6 15,6 20,6 12 7 21 12 NNO 1019,4 43 0 0,0
29.05.2020 14:00:00 16,7 13,4 16,5 20,7 14 8 24 13 N 1019,7 56 0 0,0
29.05.2020 13:00:00 16,5 13,6 15,1 20,7 14 8 23 12 NNW 1020,1 43 0 0,2
29.05.2020 12:00:00 16,0 12,9 14,7 20,7 13 7 29 15 N 1019,8 53 0 0,2
29.05.2020 11:00:00 16,6 13,1 15,5 20,7 23 12 35 19 N 1019,4 10 0 0,2
29.05.2020 10:00:00 20,5 13,5 19,7 20,8 18 10 25 13 NO 1018,5 60 0 0,0
29.05.2020 09:00:00 19,4 12,9 18,1 20,9 10 5 18 10 NNO 1018,2 56 0 0,0
29.05.2020 08:00:00 17,5 9,1 13,7 21,0 6 4 10 5 W 1018,5 59 0 0,0
29.05.2020 07:00:00 15,4 9,1 13,4 21,0 6 3 19 10 NNW 1018,5 60 0 0,0
29.05.2020 06:00:00 15,5 7,3 13,1 21,1 11 6 21 11 W 1018,4 60 0 0,0
29.05.2020 05:00:00 16,2 6,9 13,4 21,2 6 3 18 10 NW 1018,5 60 0 0,0
29.05.2020 04:00:00 16,7 7,3 15,0 21,3 11 6 21 11 W 1018,6 60 0 0,0
29.05.2020 03:00:00 16,0 7,7 12,0 21,4 11 6 18 10 W 1019,4 60 0 0,0
29.05.2020 02:00:00 14,9 7,4 12,2 21,4 3 2 15 8 NW 1020,0 60 0 0,0
29.05.2020 01:00:00 16,7 8,1 15,4 21,4 9 5 17 9 W 1020,2 60 0 0,0
29.05.2020 00:00:00 17,1 8,0 14,6 21,5 9 5 16 8 W 1020,6 60 0 0,0
28.05.2020 23:00:00 17,7 7,7 14,1 21,5 10 5 16 9 W 1020,9 60 0 0,0
28.05.2020 22:00:00 18,4 8,1 15,5 21,5 9 5 19 11 WNW 1021,1 60 0 0,0
28.05.2020 21:00:00 18,6 8,5 16,5 21,4 10 5 16 9 W 1021,3 60 0 0,0
28.05.2020 20:00:00 20,8 12,2 18,4 21,4 5 3 14 7 Z 1021,6 60 0 0,0
28.05.2020 19:00:00 21,7 9,9 21,2 21,3 8 5 17 9 Z 1021,7 35 0 0,0
28.05.2020 18:00:00 22,4 10,5 23,1 21,2 9 5 19 10 Z 1022,2 56 0 0,0
28.05.2020 17:00:00 22,6 11,9 24,9 21,0 13 7 24 13 Z 1022,6 36 0 0,0
28.05.2020 16:00:00 22,9 11,9 25,9 20,9 11 6 19 10 ZZO 1023,0 40 0 0,0
28.05.2020 15:00:00 22,7 12,9 26,7 20,8 11 6 21 11 ZO 1023,7 39 0 0,0
28.05.2020 14:00:00 23,3 13,2 27,7 20,7 10 5 18 10 OZO 1024,4 19 0 0,0
28.05.2020 13:00:00 23,0 12,9 27,9 20,7 10 6 19 10 O 1025,0 37 0 0,0
28.05.2020 12:00:00 22,9 12,8 26,9 20,6 12 6 18 10 O 1025,2 41 0 0,0
28.05.2020 11:00:00 23,0 12,3 27,0 20,6 8 4 17 9 O 1025,5 49 0 0,0
28.05.2020 10:00:00 22,4 12,6 25,1 20,6 9 5 26 14 O 1025,7 50 0 0,0
28.05.2020 09:00:00 22,4 10,5 20,9 20,7 9 5 19 10 NNO 1025,6 51 0 0,0
28.05.2020 08:00:00 19,8 8,2 16,3 20,8 6 3 20 11 W 1025,9 32 0 0,0
28.05.2020 07:00:00 16,8 6,0 14,1 20,9 11 6 21 12 W 1026,3 33 0 0,0
28.05.2020 06:00:00 15,2 5,9 13,6 21,0 13 7 21 12 W 1026,6 59 0 0,0
28.05.2020 05:00:00 14,8 5,8 12,6 21,1 14 7 21 12 W 1026,9 60 0 0,0
28.05.2020 04:00:00 14,9 5,7 11,9 21,2 10 6 19 10 W 1026,9 59 0 0,0
28.05.2020 03:00:00 15,6 5,5 11,0 21,3 10 5 18 10 W 1027,0 59 0 0,0
28.05.2020 02:00:00 15,4 6,4 10,8 21,3 7 4 14 7 W 1027,2 60 0 0,0
28.05.2020 01:00:00 16,4 5,4 13,1 21,4 4 2 21 11 NNW 1027,2 60 0 0,0
28.05.2020 00:00:00 17,8 5,0 15,1 21,4 11 6 24 13 W 1027,1 60 0 0,0
27.05.2020 23:00:00 18,4 5,2 16,5 21,4 13 7 24 13 W 1027,1 60 0 0,0
27.05.2020 22:00:00 19,0 6,5 16,2 21,4 12 6 22 12 W 1027,0 60 0 0,0
27.05.2020 21:00:00 19,0 7,4 16,5 21,4 10 6 18 10 W 1026,8 57 0 0,0
27.05.2020 20:00:00 22,9 7,0 18,6 21,3 4 2 9 5 NNW 1026,7 58 0 0,0
27.05.2020 19:00:00 22,4 6,6 21,4 21,3 7 4 14 8 ONO 1026,8 57 0 0,0
27.05.2020 18:00:00 23,2 4,2 23,5 21,2 8 5 - - NO 1027,1 60 0 0,0
27.05.2020 17:00:00 22,8 8,5 24,2 21,1 8 5 18 10 O 1027,5 45 0 0,0
27.05.2020 16:00:00 23,1 7,6 24,8 21,0 9 5 19 11 O 1027,9 34 0 0,0
27.05.2020 15:00:00 22,6 8,7 25,5 21,0 9 5 23 12 O 1028,4 35 0 0,0
27.05.2020 14:00:00 23,0 7,1 25,6 20,9 15 8 24 13 NO 1028,8 20 0 0,0
27.05.2020 13:00:00 22,5 8,2 26,3 20,9 18 10 30 16 NO 1029,1 33 0 0,0
27.05.2020 12:00:00 22,5 10,3 25,1 20,9 19 10 29 16 ONO 1029,2 40 0 0,0
27.05.2020 11:00:00 22,3 11,7 25,3 20,9 19 11 26 14 ONO 1028,9 50 0 0,0
27.05.2020 10:00:00 21,7 9,6 23,9 21,0 15 8 21 11 NO 1028,9 59 0 0,0
27.05.2020 09:00:00 21,3 8,9 18,8 21,0 10 6 17 9 NNO 1028,8 60 0 0,0
27.05.2020 08:00:00 18,6 9,4 14,4 21,2 6 3 15 8 WNW 1029,0 55 0 0,0
27.05.2020 07:00:00 15,9 7,9 13,2 21,2 12 6 18 10 W 1028,8 60 0 0,0
27.05.2020 06:00:00 16,0 7,7 13,5 21,3 11 6 17 9 W 1028,2 60 0 0,0
27.05.2020 05:00:00 17,8 7,8 13,2 21,4 13 7 21 12 NNW 1027,9 60 0 0,0
27.05.2020 04:00:00 17,2 10,6 14,4 21,4 9 5 18 10 WNW 1027,6 60 0 0,0
27.05.2020 03:00:00 17,9 11,5 15,6 21,5 6 3 22 12 WNW 1027,5 60 0 0,0
27.05.2020 02:00:00 17,7 11,9 15,7 21,5 9 5 21 11 W 1027,2 60 0 0,0
27.05.2020 01:00:00 17,7 13,0 14,7 21,6 11 6 17 9 W 1027,1 60 0 0,0
27.05.2020 00:00:00 18,4 13,0 14,7 21,5 6 4 10 5 WNW 1026,6 60 0 0,0
26.05.2020 23:00:00 19,8 13,5 17,1 21,5 8 4 12 6 W 1025,5 60 0 0,0
26.05.2020 22:00:00 20,5 15,9 18,3 21,5 6 3 9 5 NNW 1024,7 60 0 0,0
26.05.2020 21:00:00 21,0 16,8 19,9 21,4 5 3 8 5 NNO 1023,9 60 0 0,0
26.05.2020 20:00:00 22,0 15,6 22,0 21,4 3 2 9 5 NNO 1023,7 60 0 0,0
26.05.2020 19:00:00 22,6 17,3 22,7 21,3 3 2 9 5 O 1023,6 60 0 0,0
26.05.2020 18:00:00 22,2 17,1 22,1 21,1 3 2 15 8 OZO 1023,8 54 0 0,0
26.05.2020 17:00:00 22,4 16,4 23,3 21,0 9 5 16 9 O 1023,9 56 0 0,0
26.05.2020 16:00:00 23,1 16,6 24,8 20,9 10 6 20 11 O 1024,2 45 0 0,0
26.05.2020 15:00:00 24,5 14,6 27,1 20,8 9 5 17 9 OZO 1024,2 60 0 0,0
26.05.2020 14:00:00 24,6 11,9 28,2 20,7 12 6 17 9 OZO 1024,5 60 0 0,0
26.05.2020 13:00:00 24,3 11,3 28,3 20,6 9 5 21 11 O 1024,8 56 0 0,0
26.05.2020 12:00:00 25,0 10,5 27,9 20,6 11 6 16 9 O 1024,7 60 0 0,0
26.05.2020 11:00:00 24,6 8,5 27,9 20,6 8 4 13 7 OZO 1024,4 60 0 0,0
26.05.2020 10:00:00 23,4 12,4 26,3 20,6 6 3 10 5 OZO 1024,1 43 0 0,0
26.05.2020 09:00:00 23,2 13,9 21,2 20,7 6 3 8 5 O 1024,0 60 0 0,0
26.05.2020 08:00:00 20,6 10,7 15,9 20,8 5 3 14 7 WNW 1024,0 42 0 0,0
26.05.2020 07:00:00 17,6 7,6 12,6 20,9 9 5 18 10 W 1023,8 14 0 0,0
26.05.2020 06:00:00 16,1 7,0 11,4 21,0 10 6 19 11 W 1023,5 60 0 0,0
26.05.2020 05:00:00 16,3 7,0 13,7 21,1 10 6 18 10 W 1023,2 60 0 0,0
26.05.2020 04:00:00 16,1 7,8 11,3 21,2 11 6 16 9 W 1023,4 60 0 0,0

tt = temperatuur
td = dauwpunt
tt 5cm = temperatuur 5cm
tt -20cm = temperatuur -20cm
ff = windsnelheid
fx = windstoten
dd = windrichting
ppp = luchtdruk
vv = zicht
sd = Zonneschijnduur
rr = neerslag

Weerstations in de omgeving